User: anonymous   Login
Location: Unspecified
(0.0000°N, 0.0000°E)
Time: 02:01:16
(UTC+00:00)
Language:

USA 207 - Orbit

View from above orbital plane
View from above orbital plane
View from above satellite
View from above satellite

Ground track
Ground track

The orbit data is extracted from the following two-line orbital elements,

1 35815U 09047A   16146.08847879 0.00000000  00000-0  00000-0 0    04
2 35815   0.0434 322.4958 0002465  97.1581 262.8895  1.00270000    06
Epoch (UTC): 25 May 2016 02:07:24
Eccentricity: 0.0002465
inclination: 0.0434°
perigee height: 35776 km
apogee height: 35797 km
right ascension of ascending node: 322.4958°
argument of perigee: 97.1581°
revolutions per day: 1.00270000
mean anomaly at epoch: 262.8895°
orbit number at epoch: 0

The dashed part of the orbit path shows where the satellite is in the earth's shadow,  

DLR